Dewpoint
67 65 64 64 64 64 64 62 61 57 55 53 52 51 50 51 52 51 51 49 50 51 51 51 51 52 48 47 46 45 43 43 41 42 43 47 50 48 47 46 43 43 40
64 64 64 64 63 62 61 59 57 52 52 50 49 48 47 47 49 49 48 49 50 50 50 49 48 46 48 47 43 46 44 45 44 44 45 45 45 45 43 42 40 39 41
63 62 62 61 60 59 57 54 50 51 49 48 48 47 46 47 47 48 48 49 49 50 48 46 46 46 46 44 45 43 41 40 41 39 39 39 38 35 36 41 42 43 39
62 60 58 56 56 56 54 48 49 48 47 46 46 46 45 45 46 47 47 47 47 48 47 47 45 43 43 43 41 42 40 39 38 36 34 29 26 32 35 37 37 39 38
59 56 52 51 51 49 46 45 44 44 44 43 43 43 43 43 41 45 45 46 46 46 46 43 42 42 41 41 37 39 38 32 29 26 25 23 25 29 34 36 36 37 37
53 50 50 48 46 45 44 42 42 41 41 40 40 40 39 36 41 42 45 45 45 43 41 41 39 38 38 38 38 37 34 32 30 28 25 27 32 33 35 36 36 35 33
50 49 47 46 45 43 40 39 39 40 39 38 37 38 39 38 39 40 42 41 40 40 40 38 33 33 37 34 36 35 32 31 32 33 31 31 34 37 36 36 36 35 34
48 47 47 44 43 41 39 37 37 36 35 35 36 38 37 35 37 37 38 39 38 39 38 37 36 35 34 32 30 29 30 31 32 29 32 32 33 34 35 35 35 34 34
47 46 45 44 42 39 35 35 33 32 32 33 34 36 37 36 36 36 36 35 35 35 34 34 33 31 34 34 29 29 29 29 29 32 32 32 33 34 33 33 31 31 31
47 46 44 42 40 36 34 33 32 31 32 31 34 37 37 35 37 36 34 30 32 27 30 29 30 29 32 32 30 27 26 27 28 28 28 30 31 32 35 35 32 31 31
46 45 43 40 37 34 34 31 31 32 33 34 34 35 36 36 36 36 36 30 27 25 22 19 19 28 30 30 29 25 25 27 26 25 24 24 26 27 28 32 33 34 33
46 43 42 39 34 31 32 30 32 32 32 32 31 30 32 34 36 36 35 35 34 28 24 21 21 28 28 27 23 26 28 26 22 21 22 23 23 24 26 29 34 34 35
44 42 41 37 34 30 29 29 28 30 28 27 25 26 28 28 29 35 35 34 34 27 24 26 28 26 25 23 26 25 25 21 21 21 21 22 23 25 28 29 32 35 35
41 41 39 36 32 29 25 25 25 26 25 25 25 26 28 28 28 28 28 29 30 27 27 24 25 25 25 23 19 18 17 20 21 21 22 23 23 24 24 25 26 29 30
38 37 36 32 29 27 27 27 27 30 28 26 26 26 27 27 27 31 29 26 25 26 26 22 19 17 15 15 15 16 17 18 19 20 21 21 21 24 23 26 25 26 28
36 35 32 27 25 25 26 28 34 34 33 32 33 29 28 32 33 32 32 31 30 30 22 19 18 16 14 13 14 14 16 18 19 19 20 21 23 25 24 24 24 25 27
33 31 26 25 24 26 27 26 27 32 35 34 34 34 33 33 32 31 30 30 29 26 20 19 17 16 15 14 14 14 15 17 20 18 19 22 25 26 25 24 23 24 25
28 29 24 23 24 25 26 26 25 25 25 26 31 30 32 32 31 31 31 28 23 23 19 19 18 16 16 14 14 15 16 17 18 19 22 23 29 26 27 24 23 25 26
24 24 26 25 24 26 26 26 25 24 24 24 23 26 28 30 29 30 28 23 21 20 19 18 19 17 16 14 14 14 17 19 19 21 25 27 30 27 26 23 25 26 26
27 30 27 25 25 25 25 24 24 25 24 22 21 21 22 23 21 21 22 22 21 20 19 18 18 17 15 14 14 14 15 18 18 20 25 30 30 28 24 25 26 26 25
25 26 28 24 24 24 25 25 25 24 23 22 21 22 27 20 19 20 20 20 20 19 20 19 17 16 14 16 15 14 14 16 19 22 26 31 31 30 24 26 29 26 25
26 24 24 23 23 23 25 25 24 23 22 21 21 20 27 19 19 19 20 21 21 21 21 20 17 16 16 16 17 16 15 15 20 21 24 29 33 29 27 25 24 24 24
29 27 24 23 24 27 25 24 23 23 22 21 20 19 19 20 19 20 21 21 22 21 21 20 17 14 17 18 19 17 16 18 23 21 23 26 29 27 29 28 22 21 22
27 28 26 25 24 23 24 23 23 23 21 20 21 20 21 21 21 22 21 22 21 21 21 20 17 16 18 18 19 17 17 21 22 21 22 22 24 22 21 21 20 21 21
24 26 26 26 25 23 23 22 21 21 21 21 21 21 21 22 22 22 23 23 22 21 21 20 17 17 18 19 20 20 23 25 24 25 22 20 21 21 22 19 19 21 21
26 26 26 26 24 23 23 22 22 22 21 22 22 22 23 22 22 23 23 23 21 20 20 20 17 18 19 18 21 25 25 25 24 25 24 20 20 19 21 20 20 20 22
Lifted_Index
-4 -4 -4 -4 -3 -3 -2 -1 -0 1 1 0 0 1 2 3 4 5 7 9 10 11 11 12 12 12 12 13 12 12 12 12 12 11 11 10 10 10 10 10 10 10 10
-4 -4 -4 -3 -3 -2 -2 -1 0 1 1 1 1 2 2 3 5 7 8 10 11 11 12 12 13 13 13 13 13 13 13 12 11 11 10 10 11 11 11 11 9 8 8
-4 -4 -4 -3 -2 -2 -2 -1 -0 0 1 1 2 3 3 5 7 9 10 11 12 12 13 13 13 13 13 13 13 13 12 12 11 11 11 12 13 13 13 10 8 6 6
-4 -4 -3 -3 -2 -2 -1 -1 -0 0 1 2 3 4 5 7 9 11 12 13 13 13 13 13 13 13 13 13 13 12 12 12 12 12 13 14 15 15 13 10 8 6 6
-4 -4 -3 -2 -2 -2 -1 -1 -0 1 2 3 5 6 7 9 11 12 13 13 13 13 13 13 13 14 14 14 14 14 14 14 14 15 15 16 16 15 13 11 8 7 6
-4 -3 -2 -2 -2 -2 -1 -0 1 2 4 5 7 8 10 12 13 14 14 14 14 13 13 13 14 15 16 17 17 17 17 17 17 17 16 16 15 15 13 11 9 7 6
-3 -3 -2 -2 -2 -1 -0 1 3 4 6 8 10 11 13 14 14 14 14 14 13 13 14 15 16 17 18 18 19 19 19 19 19 18 17 16 16 14 12 10 9 8 7
-3 -2 -2 -2 -1 -0 1 3 5 7 8 10 12 13 14 15 15 15 14 14 15 15 16 17 18 19 19 19 18 18 18 18 19 18 18 18 17 15 13 11 10 8 7
-2 -2 -2 -1 -0 1 2 5 7 9 11 13 14 15 15 16 16 16 16 16 17 18 19 19 20 20 19 19 18 17 17 17 18 18 18 18 17 16 14 12 10 8 7
-2 -1 -1 0 1 3 5 7 10 12 13 14 15 16 17 17 17 17 18 18 19 19 20 20 20 20 19 19 18 17 16 17 17 17 17 18 18 17 16 14 12 9 7
-1 -0 1 3 4 6 8 11 12 13 14 15 15 16 18 18 19 19 20 20 20 19 19 20 20 20 19 19 18 17 17 17 17 17 17 17 18 18 17 15 13 11 10
1 2 3 6 8 10 11 12 14 14 14 15 15 16 18 19 20 20 20 20 20 19 19 19 20 20 19 19 18 18 18 18 17 17 17 17 18 18 18 17 15 14 13
3 4 6 9 11 12 13 14 14 15 15 15 15 16 18 19 20 20 20 20 20 20 20 20 19 19 19 19 19 18 18 18 18 17 17 18 18 18 18 18 16 14 13
6 7 9 11 12 14 15 15 15 16 16 16 16 17 18 19 20 20 20 20 20 20 20 19 19 19 18 18 18 19 19 18 18 18 18 18 19 19 18 18 17 14 12
8 9 11 13 14 14 15 16 17 17 17 17 18 18 19 19 19 20 20 20 20 20 19 18 18 18 18 18 18 18 18 18 18 18 18 19 19 18 18 19 18 16 13
10 12 13 14 15 15 15 16 18 19 19 19 19 19 19 19 20 20 20 20 20 19 18 17 17 17 17 17 18 18 18 19 19 19 19 19 19 19 19 19 19 17 15
13 14 15 15 16 16 16 17 17 18 19 19 20 20 20 20 20 20 20 20 19 18 17 17 17 17 17 18 18 18 18 19 19 19 19 19 19 19 19 19 19 18 17
15 15 16 16 16 17 17 17 17 18 18 18 19 20 20 20 20 20 20 19 18 17 17 17 17 18 18 18 18 18 19 19 19 20 20 20 20 20 19 19 19 19 18
16 16 17 17 17 18 18 18 18 18 17 18 18 19 20 20 20 20 19 18 17 17 17 18 18 18 18 18 18 19 19 19 19 20 20 20 20 20 20 20 20 19 19
17 17 17 18 18 18 18 18 18 17 17 17 18 18 19 19 19 18 18 17 17 17 18 18 18 19 19 19 19 19 19 19 19 20 20 20 20 20 20 20 20 20 19
17 17 18 18 18 18 18 17 17 17 17 17 18 18 18 18 17 17 17 17 18 18 18 19 19 19 19 19 19 19 19 19 19 20 20 20 20 20 21 21 21 20 20
17 18 18 18 18 18 18 17 17 17 17 17 17 18 18 17 17 17 17 17 18 18 19 19 19 19 19 19 19 19 19 19 20 20 20 20 20 20 21 21 21 21 20
17 17 18 18 18 17 17 17 17 17 17 17 17 17 17 16 16 17 17 18 18 18 19 19 19 19 19 20 20 20 20 20 20 21 20 20 20 20 20 20 21 20 20
17 17 17 17 17 17 16 16 16 16 16 17 16 16 16 16 16 17 17 17 18 18 18 19 19 19 20 20 21 21 21 21 21 21 21 20 20 20 20 20 20 21 21
17 17 17 16 16 16 16 16 16 16 16 16 16 16 16 16 16 16 17 17 17 18 18 19 19 19 20 20 20 21 21 21 21 21 21 20 20 20 20 20 20 20 20
17 16 16 16 16 15 15 15 15 16 16 16 16 16 16 16 16 16 16 17 17 18 18 19 19 19 20 20 20 21 21 21 21 21 21 20 20 20 20 20 20 20 20